KZ1X Weather Reports


Display with metric or nautical units.
time (UTC)temp
F
wind
direction
speed
MPH
gust
MPH
rain 1hr
in
rain 24hr
in
rain mn
in
humidity
%
barometer
mb
20260904010045 82 0 0.0 0.0 0.00 0.00 0.00 84 1016.2
20260904004543 82 0 0.0 0.0 0.00 0.00 0.00 83 1016.2
20260904003053 83 0 0.0 0.0 0.00 0.00 0.00 82 1015.9
20260904001543 84 0 0.0 0.0 0.00 0.00 0.00 81 1015.6
20260904000135 84 0 0.0 0.0 0.00 0.00 0.00 79 1015.4
20260903234552 85 0 0.0 0.0 0.00 0.00 0.00 78 1015.3
20260903233049 86 0 0.0 0.0 0.00 0.00 0.00 76 1015.2
20260903231559 86 0 0.0 0.0 0.00 0.00 0.00 74 1015.1
20260903230055 87 0 0.0 0.0 0.00 0.00 0.00 72 1015.1
20260903224548 88 0 0.0 0.0 0.00 0.00 0.00 71 1015.1
20260903223049 88 0 0.0 0.0 0.00 0.00 0.00 73 1015.1
20260903221550 89 0 0.0 0.0 0.00 0.00 0.00 70 1015.0
20260903220105 89 0 0.0 0.0 0.00 0.00 0.00 72 1015.2
20260903214550 89 0 0.0 0.0 0.00 0.00 0.00 71 1015.2
20260903213053 89 0 0.0 0.0 0.00 0.00 0.00 68 1015.3
20260903211547 91 0 0.0 0.0 0.00 0.00 0.00 66 1015.3
20260903210050 92 0 0.0 0.0 0.00 0.00 0.00 64 1015.3
20260903204550 95 0 0.0 0.0 0.00 0.00 0.00 59 1015.3
20260903203049 95 0 0.0 0.0 0.00 0.00 0.00 59 1015.5
20260903201548 97 0 0.0 0.0 0.00 0.00 0.00 59 1015.7
20260903200047 97 0 0.0 0.0 0.00 0.00 0.00 56 1015.9
20260903194548 97 0 0.0 1.0 0.00 0.00 0.00 57 1016.0
20260903193053 97 0 0.0 1.0 0.00 0.00 0.00 60 1016.0
20260903191548 97 0 0.0 1.0 0.00 0.00 0.00 56 1016.2
20260903190059 95 243 0.0 1.0 0.00 0.00 0.00 58 1016.5
20260903184548 97 0 0.0 2.0 0.00 0.00 0.00 56 1016.5
20260903183048 99 261 0.0 0.0 0.00 0.00 0.00 53 1016.8
20260903181550 97 0 0.0 2.0 0.00 0.00 0.00 56 1016.9
20260903180051 97 0 0.0 2.0 0.00 0.00 0.00 53 1017.0
20260903174542 97 0 0.0 2.0 0.00 0.00 0.00 53 1017.2
20260903173053 96 0 0.0 1.0 0.00 0.00 0.00 61 1017.4
20260903171547 96 242 0.0 3.0 0.00 0.00 0.00 63 1017.6
20260903170056 96 0 0.0 2.0 0.00 0.00 0.00 62 1017.8
20260903164544 95 0 0.0 2.0 0.00 0.00 0.00 57 1018.0
20260903163107 95 89 0.0 1.0 0.00 0.00 0.00 59 1018.0
20260903161549 94 46 0.0 4.0 0.00 0.00 0.00 64 1018.1
20260903160055 93 221 1.0 4.0 0.00 0.00 0.00 63 1018.3
20260903154549 92 338 1.0 5.0 0.00 0.00 0.00 67 1018.3
20260903153049 91 0 0.0 2.0 0.00 0.00 0.00 75 1018.3
20260903151551 90 105 0.0 1.0 0.00 0.00 0.00 73 1018.4
20260903150108 88 62 0.0 1.0 0.00 0.00 0.00 76 1018.4
20260903144552 86 205 0.0 1.0 0.00 0.00 0.00 78 1018.4
20260903143049 84 0 0.0 0.0 0.00 0.00 0.00 83 1018.5
20260903141552 83 0 0.0 0.0 0.00 0.00 0.00 86 1018.2
20260903140049 82 0 0.0 0.0 0.00 0.00 0.00 88 1018.3
20260903134550 80 0 0.0 0.0 0.00 0.00 0.00 89 1018.4
20260903133049 78 0 0.0 0.0 0.00 0.00 0.00 95 1018.4
20260903131548 77 0 0.0 0.0 0.00 0.00 0.00 98 1018.2
20260903130048 75 0 0.0 0.0 0.00 0.00 0.00 99 1018.3
20260903124600 75 0 0.0 0.0 0.00 0.00 0.00 99 1018.4
20260903123046 74 0 0.0 0.0 0.00 0.00 0.00 99 1018.4
20260903121550 73 0 0.0 0.0 0.00 0.00 0.00 99 1018.4
20260903120052 72 0 0.0 0.0 0.00 0.00 0.00 99 1018.4
20260903114609 72 0 0.0 0.0 0.00 0.00 0.00 99 1018.4
20260903113045 71 0 0.0 0.0 0.00 0.00 0.00 98 1018.4
20260903111553 71 0 0.0 0.0 0.00 0.00 0.00 98 1018.2
20260903110048 71 0 0.0 0.0 0.00 0.00 0.00 98 1017.8
20260903104549 72 0 0.0 0.0 0.00 0.00 0.00 98 1018.0
20260903103052 72 0 0.0 0.0 0.00 0.00 0.00 98 1017.7
20260903101547 72 0 0.0 0.0 0.00 0.00 0.00 98 1017.6
20260903100043 72 0 0.0 0.0 0.00 0.00 0.00 98 1017.6
20260903094557 72 0 0.0 0.0 0.00 0.00 0.00 98 1017.5
20260903093121 72 0 0.0 0.0 0.00 0.00 0.00 98 1017.5
20260903091606 72 0 0.0 0.0 0.00 0.00 0.00 98 1017.3
20260903090049 72 0 0.0 0.0 0.00 0.00 0.00 98 1017.5
20260903084547 73 0 0.0 0.0 0.00 0.00 0.00 97 1017.2
20260903083049 73 0 0.0 0.0 0.00 0.00 0.00 97 1017.3
20260903081550 73 0 0.0 0.0 0.00 0.00 0.00 97 1017.2
20260903080047 73 0 0.0 0.0 0.00 0.00 0.00 97 1017.1
20260903074545 73 0 0.0 0.0 0.00 0.00 0.00 97 1016.8
20260903073052 73 0 0.0 0.0 0.00 0.00 0.00 97 1017.0
20260903071610 74 0 0.0 0.0 0.00 0.00 0.00 96 1017.0
20260903070100 74 0 0.0 0.0 0.00 0.00 0.00 96 1017.1
20260903064551 74 0 0.0 0.0 0.00 0.00 0.00 96 1017.0
20260903063048 74 0 0.0 0.0 0.00 0.00 0.00 95 1017.3
20260903061547 74 0 0.0 0.0 0.00 0.00 0.00 95 1017.1
20260903060045 75 0 0.0 0.0 0.00 0.00 0.00 95 1017.4
20260903054547 75 0 0.0 0.0 0.00 0.00 0.00 95 1017.3
20260903053047 75 0 0.0 0.0 0.00 0.00 0.00 95 1017.6
20260903051551 76 0 0.0 0.0 0.00 0.00 0.00 94 1017.4
20260903050105 76 0 0.0 0.0 0.00 0.00 0.00 94 1017.4
20260903044556 76 0 0.0 0.0 0.00 0.00 0.00 94 1017.4
20260903043047 76 0 0.0 0.0 0.00 0.00 0.00 93 1017.2
20260903041605 77 0 0.0 0.0 0.00 0.00 0.00 93 1017.5
20260903040058 77 0 0.0 0.0 0.00 0.00 0.00 93 1017.5
20260903034545 77 0 0.0 0.0 0.00 0.00 0.00 93 1017.5
20260903033043 77 0 0.0 0.0 0.00 0.00 0.00 92 1017.5
20260903031547 78 0 0.0 0.0 0.00 0.00 0.00 92 1017.5
20260903030050 78 0 0.0 0.0 0.00 0.00 0.00 91 1017.5
20260903024548 79 0 0.0 0.0 0.00 0.00 0.00 90 1017.3
20260903023047 79 0 0.0 0.0 0.00 0.00 0.00 89 1017.5
20260903021555 80 0 0.0 1.0 0.00 0.00 0.00 88 1017.3
20260903020046 79 0 0.0 1.0 0.00 0.00 0.00 90 1017.3
20260903014559 80 0 0.0 0.0 0.00 0.00 0.00 89 1017.5
20260903013055 80 0 0.0 0.0 0.00 0.00 0.00 88 1017.6
20260903011549 81 0 0.0 0.0 0.00 0.00 0.00 87 1017.7